Location: Paderno d�Adda
(45.6667°N, 9.4333°E)
Time: 14:30:48
(UTC+00:00)

Cosmos 807 - Pass Details

Date: 19 September 2020
Orbit: 372 x 1185 km, 82.9° (Epoch: 29 October)

Event Time Altitude Azimuth Distance (km) Brightness Sun altitude
Rises 18:10:42 0° 184° (S) 2,263 7.9 -8.8°
Reaches altitude 10° 18:12:33 10° 183° (S) 1,457 6.9 -9.1°
Maximum altitude 18:15:38 78° 97° (E) 459 4.3 -9.6°
Drops below altitude 10° 18:19:20 10° 11° (N) 1,734 7.4 -10.2°
Sets 18:21:42 0° 10° (N) 2,752 8.4 -10.6°
